Regional Weather Roundup
Issued by NWS

Home | Current Version | Previous Version | Text Only | Print | Product List | Glossary On
Versions: 1 2 3 4 5 6 7 8 9 10 11 12 13 14 15 16 17 18 19 20 21 22 23 24 25 26 27 28
000
ASUS42 KFFC 302303
RWRGA
WEATHER ROUNDUP FOR GEORGIA
NATIONAL WEATHER SERVICE PEACHTREE CITY GA
700 PM EDT MON MAY 30 2016

NOTE: "FAIR" INDICATES FEW OR NO CLOUDS BELOW 12,000 FEET WITH NO
SIGNIFICANT WEATHER AND/OR OBSTRUCTIONS TO VISIBILITY.

* = USE WITH CAUTION. THE STATIONS MARKED WITH AN ASTERISK MAY NOT
REPORT WEATHER SUCH AS PRECIPITATION, FOG, OR THUNDER AND ARE NOT
QUALITY CONTROLLED BY NWS.

THE REMARK "TC" DENOTES TEMPERATURE READING IN DEGREES CELSIUS.

GAZ001>058-310000-
NORTH GEORGIA

CITY           SKY/WX    TMP DP  RH WIND       PRES   REMARKS
ATLANTA        MOSUNNY   89  56  32 N12       29.92F
ATHENS         SUNNY     87  63  44 NW3       29.91F
CHAMBLEE       SUNNY     89  56  32 N6        29.92F
ROME           PTSUNNY   81  59  47 SE7       29.92S
WEST ATLANTA   SUNNY     88  58  36 NW7       29.92F
GAINESVILLE    SUNNY     87  60  40 W7        29.95F
CARTERSVILLE   TSTM      75  65  70 N21G36    29.98R


CITY           SKY/WX    TMP DP  RH WIND       PRES   REMARKS
DALTON*        MOSUNNY   77  64  65 CALM      29.93F
LAWRENCEVILLE* MOSUNNY   88  64  45 N6        29.94F
KENNESAW*      MOSUNNY   86  59  39 NW7       29.88S
CANTON*        MOSUNNY   84  48  28 NW7       29.95F
BLAIRSVILLE*     N/A    N/A N/A N/A MISG      29.99S
$$

GAZ059>098-102>109-310000-
CENTRAL GEORGIA

CITY           SKY/WX    TMP DP  RH WIND       PRES   REMARKS
AUGUSTA-BUSH   SUNNY     88  63  43 N7        29.88S
AUGUSTA-DANIEL SUNNY     89  63  41 N7        29.90F HX  90
COLUMBUS       MOSUNNY   87  58  37 W7        29.90F
MACON          SUNNY     91  62  37 N7        29.89F HX  91
ROBINS AFB     SUNNY     91  68  47 NE3       29.88F HX  94


CITY           SKY/WX    TMP DP  RH WIND       PRES   REMARKS
LAGRANGE*      MOSUNNY   92  62  35 N7        29.92F HX  92
SYLVANIA*      SUNNY     87  67  50 NW8       29.88F HX  90
MILLEDGEVILLE* SUNNY     88  64  45 CALM      29.89F
$$

GAZ099>101-110>166-310000-
SOUTH GEORGIA

CITY           SKY/WX    TMP DP  RH WIND       PRES   REMARKS
SAVANNAH       MOSUNNY   86  66  51 NW9       29.88S
VALDOSTA       MOSUNNY   88  64  44 CALM      29.90R
ALMA           SUNNY     90  60  36 NW7       29.89S
ST SIMONS      SUNNY     83  73  72 SE8       29.88R
FT STEWART     SUNNY     88  64  44 NW7       29.86R
ALBANY         SUNNY     92  59  33 W7        29.91S HX  91
HUNTER AFB     SUNNY     86  70  58 NW5       29.86R HX  91
BRUNSWICK      SUNNY     95  63  34 NW5       29.89R HX  96


CITY           SKY/WX    TMP DP  RH WIND       PRES   REMARKS
BAINBRIDGE*    CLOUDY    84  63  48 W7        29.90S
MOULTRIE*      SUNNY     91  59  33 W6        29.91R HX  90
VIDALIA*       MOSUNNY   90  61  37 NW9       29.89S
WAYCROSS*      SUNNY     91  62  37 N7        29.89R HX  91
DOUGLAS*       SUNNY     91  54  27 N6        29.92R
$$




USA.gov is the U.S. government's official web portal to all federal, state and local government web resources and services.